Hot Springs, AR

11:53 PM CDT on August 20, 2019 (GMT -0500)
Hot Springs Memorial

Weather History for KHOT - July, 2019

Change the Weather History Date:

Sunday, July 21, 2019

  Actual Average Record
Temperature  
Mean Temperature 83 °F -  
Max Temperature 93 °F 95 °F 107 °F (1986)
Min Temperature 75 °F 69 °F 59 °F (1970)
Cooling Degree Days 18    
Growing Degree Days 33 (Base 50)    
Moisture  
Dew Point 76 °F    
Average Humidity 77    
Maximum Humidity 100    
Minimum Humidity 54    
Precipitation  
Precipitation 0.00 in - - ()
Sea Level Pressure  
Sea Level Pressure 29.94 in    
Wind  
Wind Speed 3 mph (SSW)    
Max Wind Speed 8 mph    
Max Gust Speed -    
Visibility 10 miles    
Events      
Averages and records for this station are not official NWS values.
T = Trace of Precipitation, MM = Missing Value Source: NWS Daily Summary

Daily Weather History Graph

Daily Weather History Graph

Search for Another Location

Airport or City:

Astronomy

Jul. 21, 2019 Rise Set
Actual Time 6:14 AM CDT 8:22 PM CDT
Civil Twilight 5:46 AM CDT 8:50 PM CDT
Nautical Twilight 5:11 AM CDT 9:25 PM CDT
Astronomical Twilight 4:34 AM CDT 10:02 PM CDT
Moon 11:27 PM CDT 10:26 AM CDT
Length of Visible Light 15h 04m
Length of Day
14h 07m
Waning Gibbous, 80% of the Moon is Illuminated
Jul 21
Waning Gibbous
Jul 24
Last Quarter
Jul 31
New
Aug 7
First Quarter
Aug 15
Full

Hourly Weather History & Observations

Time (CDT) Temp. Heat Index Dew Point Humidity Pressure Visibility Wind Dir Wind Speed Gust Speed Precip Events Conditions
12:53 AM 78.1 °F - 75.0 °F 90% 29.92 in 10.0 mi East 4.6 mph - N/A   Clear
1:53 AM 78.1 °F - 75.9 °F 93% 29.94 in 10.0 mi Calm Calm - N/A   Clear
2:53 AM 75.9 °F - 75.0 °F 97% 29.94 in 7.0 mi Calm Calm - N/A   Clear
3:53 AM 75.9 °F - 75.0 °F 97% 29.93 in 9.0 mi Calm Calm - N/A   Partly Cloudy
4:53 AM 77.0 °F - 75.9 °F 96% 29.94 in 8.0 mi Calm Calm - N/A   Scattered Clouds
5:53 AM 75.0 °F - 75.0 °F 100% 29.96 in 8.0 mi ENE 4.6 mph - N/A   Partly Cloudy
6:53 AM 77.0 °F - 75.0 °F 94% 29.96 in 6.0 mi Calm Calm - N/A   Clear
7:53 AM 80.1 °F 85.8 °F 77.0 °F 90% 29.99 in 9.0 mi Variable 3.5 mph - N/A   Clear
8:53 AM 82.0 °F 90.2 °F 77.0 °F 85% 29.99 in 10.0 mi Variable 4.6 mph - N/A   Partly Cloudy
9:53 AM 84.9 °F 95.3 °F 77.0 °F 77% 29.98 in 10.0 mi Variable 4.6 mph - N/A   Clear
10:53 AM 88.0 °F 101.3 °F 78.1 °F 72% 29.98 in 10.0 mi NNW 3.5 mph - N/A   Clear
11:53 AM 90.0 °F 100.2 °F 75.0 °F 61% 29.97 in 10.0 mi WSW 8.1 mph - N/A   Partly Cloudy
12:53 PM 91.9 °F 103.2 °F 75.0 °F 58% 29.96 in 10.0 mi WSW 8.1 mph - N/A   Scattered Clouds
1:53 PM 91.9 °F 101.3 °F 73.9 °F 55% 29.94 in 10.0 mi SSW 6.9 mph - N/A   Mostly Cloudy
2:53 PM 91.9 °F 100.7 °F 73.0 °F 54% 29.93 in 10.0 mi SW 5.8 mph - N/A   Mostly Cloudy
3:53 PM 91.0 °F 100.4 °F 73.9 °F 57% 29.91 in 10.0 mi SSW 3.5 mph - N/A   Scattered Clouds
4:53 PM 91.0 °F 101.6 °F 75.0 °F 59% 29.91 in 10.0 mi South 4.6 mph - N/A   Clear
5:53 PM 91.9 °F 101.3 °F 73.9 °F 55% 29.91 in 10.0 mi SSW 6.9 mph - N/A   Clear
6:53 PM 91.0 °F 100.4 °F 73.9 °F 57% 29.91 in 10.0 mi SSW 4.6 mph - N/A   Clear
7:53 PM 89.1 °F 101.4 °F 77.0 °F 67% 29.91 in 10.0 mi Calm Calm - N/A   Clear
8:53 PM 86.0 °F 96.0 °F 75.9 °F 72% 29.91 in 10.0 mi South 3.5 mph - N/A   Clear
9:53 PM 82.9 °F 91.8 °F 77.0 °F 82% 29.91 in 10.0 mi Calm Calm - N/A   Clear
10:53 PM 80.1 °F 85.8 °F 77.0 °F 90% 29.92 in 10.0 mi Calm Calm - N/A   Clear
11:53 PM 79.0 °F - 75.9 °F 90% 29.91 in 10.0 mi Calm Calm - N/A   Clear